User: anonymous   Login
Location: Vienna
(48.2082°N, 16.3738°E)
Time: 11:34:57
(UTC+02:00)
Language:

ISS - Orbit

View from above orbital plane
View from above orbital plane
View from above satellite
View from above satellite

Ground track
Ground track

The orbit data is extracted from the following two-line orbital elements,

1 25544U 98067A   18109.49274052  .00016717  00000-0  10270-3 0  9076
2 25544  51.6410 311.3190 0002270 345.0498  15.0587 15.54107942 29387
Epoch (UTC): 19 April 2018 11:49:32
Eccentricity: 0.0002270
inclination: 51.6410°
perigee height: 403 km
apogee height: 406 km
right ascension of ascending node: 311.3190°
argument of perigee: 345.0498°
revolutions per day: 15.54107942
mean anomaly at epoch: 15.0587°
orbit number at epoch: 2938

The dashed part of the orbit path shows where the satellite is in the earth's shadow,  

DLR